Hourly Data Report for October 30, 2014

All times are specified in Local Standard Time (LST). Add 1 hour to adjust for Daylight Saving Time where and when it is observed.

POND INLET A
NUNAVUT

72°41'22.000" N
77°58'08.000" W
61.60 m
2403206
71095
YIO

Download Data

Hourly Data (October 2014)
Hourly Data Report for October 30, 2014
Temp Definition
°C
Dew Point Temp Definition
°C
Rel Hum Definition
%
Wind Dir Definition
10's deg

Wind Spd Definition
km/h
Visibility Definition
km
Stn Press Definition
kPa
Hmdx Definition


Wind Chill Definition


Weather Definition


TIME
00:00 Legend Double Dagger -8.0 -9.2 91 21 18 16.1 100.15   -15 Snow
01:00 Legend Double Dagger -8.0 -9.2 91 19 21 16.1 100.16   -16 LegendNANA
02:00 Legend Double Dagger -8.4 -9.7 90 22 28 16.1 100.21   -17 LegendNANA
03:00 Legend Double Dagger -8.6 -10.0 90 21 22 16.1 100.29   -16 Snow
04:00 Legend Double Dagger -8.7 -10.2 89 19 24 16.1 100.33   -17 Snow
05:00 Legend Double Dagger -8.0 -9.4 90 25 34 16.1 100.37   -17 Snow
06:00 Legend Double Dagger -9.1 -10.5 90 20 24 16.1 100.47   -17 Snow
07:00 Legend Double Dagger -9.1 -10.6 89 20 18 16.1 100.53   -16 Snow
08:00 Legend Double Dagger -9.3 -10.8 89 19 21 9.7 100.57   -17 Snow
09:00 Legend Double Dagger -9.5 -11.1 88 19 18 16.1 100.60   -17 Snow
10:00 Legend Double Dagger -9.8 -11.4 88 18 17 16.1 100.65   -17 Snow
11:00 Legend Double Dagger -9.4 -11.1 88 19 15 11.3 100.70   -16 Snow
12:00 Legend Double Dagger -9.7 -11.2 89 18 11 6.4 100.76   -15 Snow
13:00 Legend Double Dagger -10.1 -11.7 88 16 9 16.1 100.79   -15 Snow
14:00 Legend Double Dagger -10.4 -12.1 88 16 11 16.1 100.85   -16 LegendNANA
15:00 Legend Double Dagger -11.0 -12.6 88 15 11 16.1 100.91   -17 LegendNANA
16:00 Legend Double Dagger -10.5 -12.3 87 14 9 16.1 100.98   -15 LegendNANA
17:00 Legend Double Dagger -10.1 -11.7 88 14 8 16.1 101.02   -15 LegendNANA
18:00 Legend Double Dagger -9.7 -11.3 88 15 8 16.1 101.04   -14 LegendNANA
19:00 Legend Double Dagger -10.9 -12.5 88 15 5 16.1 101.07   -14 LegendNANA
20:00 Legend Double Dagger -11.5 -12.8 90 15 13 16.1 101.09   -18 LegendNANA
21:00 Legend Double Dagger -12.5 -13.9 90 15 13 16.1 101.11   -19 LegendNANA
22:00 Legend Double Dagger -13.4 -14.5 92 15 11 16.1 101.12   -20 LegendNANA
23:00 Legend Double Dagger -14.2 -15.8 88 14 18 16.1 101.13   -23 LegendNANA

Notes on Data Quality.

Legend

  • E = Estimated
  • M = Missing
  • NA = Not Available
  • ‡ = Partner data that is not subject to review by the National Climate Archives
Date modified: